Location: Rio Negrinho
(26.2394°S, 49.4999°W)
Time: 02:05:02
(UTC+00:00)

SEDSat Delta rocket - Pass Details

Date: 03 October 2020
Orbit: 533 x 1000 km, 31.4° (Epoch: 20 October)

Event Time Altitude Azimuth Distance (km) Brightness Sun altitude
Rises 21:52:36 0° 298° (WNW) 3,513 7.9 -8.3°
Reaches altitude 10° 21:55:21 10° 300° (WNW) 2,508 7.0 -8.9°
Maximum altitude 22:01:17 68° 22° (NNE) 844 3.6 -10.2°
Enters shadow 22:06:04 12° 104° (ESE) 2,046 5.2 -11.2°
